Content
SEND FEEDBACK

Daily
Averages
Monthly
Summary
United States of America

MANGILAO, GUAM


Home > North America > United States > Guam
Elevation: 60 feet     Latitude: 13 27N     Longitude: 144 49E

WEATHER
 
SELECT A DAY
Number of Records: 354,701;   Date Range: 1/1/95 - 11/26/14
 
SHARE

PRINT THIS DATA

[ ← Previous Day ]
WEATHER ALMANAC - APRIL 21, 2013
[ Next Day → ]
[ °C ]   °F
Weather ElementAverageHighLow
Temperature80.3 °F84.7 °F (11:55 am)77 °F (5:32 am)
Dewpoint72.9 °F73.6 °F (10:55 am)70.2 °F (11:55 pm)
Humidity78.1 %85 % (5:55 am)69 % (9:55 am)
Barometer29.85 in29.90 in (8:55 am)29.81 in (4:02 pm)
Wind Speed9.8 mph12.7 mph (12:08 am)
Weather ElementAverage
Visibility10 mi
Wind DirectionE (86 °)

Weather ElementTotal
Precipitation---
Cooling Degree Days15.9 (Base 65)
Growing Degree Days30.9 (Base 50)
Averaged from 63 records on April 21, 2013
WEATHER CONDITIONS BREAKOUT
WIND DIRECTION BREAKOUT
WEATHER BY HOUR - APRIL 21, 2013
[ °C ]   °F
Local TimeTemperatureDewpointHumidityBarometerVisibilityWind DirectionWind SpeedGust SpeedPrecipitationEventsConditions
12:08 AM78.8 °F73.4 °F83 %29.87 in10.0 miEast (80°)12.7 mphMostly Cloudy
12:55 AM78.8 °F73.2 °F83 %29.86 in10.0 miEast (80°)11.5 mphOvercast
1:24 AM78.8 °F73.4 °F83 %29.86 in10.0 miEast (80°)10.4 mphOvercast
1:46 AM78.8 °F73.4 °F83 %29.85 in10.0 miENE (70°)11.5 mphMostly Cloudy
1:55 AM77.9 °F72.9 °F84 %29.85 in10.0 miENE (70°)10.4 mphScattered Clouds
2:18 AM78.8 °F73.4 °F83 %29.85 in10.0 miENE (70°)10.4 mphMostly Cloudy
2:28 AM78.8 °F73.4 °F83 %29.85 in10.0 miEast (90°)10.4 mphScattered Clouds
2:31 AM78.8 °F73.4 °F83 %29.85 in10.0 miEast (80°)9.2 mphMostly Cloudy
2:42 AM78.8 °F71.6 °F78 %29.84 in10.0 miEast (80°)11.5 mphMostly Cloudy
2:55 AM78.1 °F72.1 °F82 %29.84 in10.0 miEast (80°)10.4 mphScattered Clouds
3:55 AM77.9 °F72.1 °F82 %29.84 in10.0 miEast (80°)9.2 mphPartly Cloudy
4:55 AM77.4 °F71.8 °F83 %29.85 in10.0 miEast (80°)10.4 mphPartly Cloudy
5:14 AM78.8 °F73.4 °F83 %29.85 in10.0 miEast (100°)9.2 mphMostly Cloudy
5:19 AM78.8 °F73.4 °F83 %29.86 in10.0 miEast (90°)10.4 mphRainLight Rain
5:32 AM77.0 °F71.6 °F83 %29.86 in10.0 miEast (90°)9.2 mphMostly Cloudy
5:34 AM77.0 °F71.6 °F83 %29.86 in10.0 miEast (100°)9.2 mphScattered Clouds
5:55 AM77.4 °F72.5 °F85 %29.86 in10.0 miEast (90°)10.4 mph0.00 inPartly Cloudy
6:55 AM78.8 °F71.2 °F78 %29.88 in10.0 miEast (90°)9.2 mphClear
7:32 AM78.8 °F71.6 °F78 %29.89 in10.0 miEast (80°)11.5 mphMostly Cloudy
7:48 AM80.6 °F73.4 °F79 %29.89 in10.0 miEast (100°)9.2 mphScattered Clouds
7:50 AM80.6 °F73.4 °F79 %29.89 in10.0 miEast (90°)10.4 mphMostly Cloudy
7:54 AM80.6 °F73.4 °F79 %29.89 in10.0 miEast (90°)11.5 mphScattered Clouds
7:55 AM80.6 °F72.7 °F77 %29.89 in10.0 miEast (90°)10.4 mphScattered Clouds
8:33 AM82.4 °F73.4 °F74 %29.89 in10.0 miEast (90°)8.1 mphMostly Cloudy
8:36 AM82.4 °F73.4 °F74 %29.89 in10.0 miEast (90°)10.4 mphMostly Cloudy
8:55 AM82.9 °F72.9 °F71 %29.90 in10.0 miEast (80°)11.5 mphPartly Cloudy
9:55 AM84.2 °F73.0 °F69 %29.89 in10.0 miEast (90°)10.4 mphPartly Cloudy
10:55 AM84.2 °F73.6 °F70 %29.89 in10.0 miEast (80°)12.7 mphClear
11:55 AM84.7 °F73.6 °F69 %29.87 in10.0 miEast (100°)12.7 mphScattered Clouds
12:47 PM84.2 °F73.4 °F70 %29.85 in10.0 miEast (80°)10.4 mphMostly Cloudy
12:55 PM83.7 °F73.6 °F72 %29.85 in10.0 miEast (100°)6.9 mphMostly Cloudy
1:55 PM83.5 °F73.2 °F71 %29.83 in10.0 miEast (100°)10.4 mphMostly Cloudy
2:24 PM82.4 °F73.4 °F74 %29.82 in10.0 miEast (80°)9.2 mphScattered Clouds
2:55 PM83.3 °F73.2 °F71 %29.82 in10.0 miEast (100°)9.2 mphScattered Clouds
3:55 PM82.4 °F72.5 °F72 %29.82 in10.0 miEast (80°)10.4 mphScattered Clouds
4:02 PM82.4 °F73.4 °F74 %29.81 in10.0 miVariable6.9 mphMostly Cloudy
4:04 PM82.4 °F73.4 °F74 %29.81 in10.0 miEast (80°)8.1 mphScattered Clouds
4:15 PM82.4 °F73.4 °F74 %29.81 in10.0 miEast (90°)6.9 mphMostly Cloudy
4:27 PM82.4 °F73.4 °F74 %29.81 in10.0 miEast (90°)6.9 mphScattered Clouds
4:30 PM82.4 °F73.4 °F74 %29.81 in10.0 miEast (80°)8.1 mphMostly Cloudy
4:33 PM82.4 °F73.4 °F74 %29.81 in10.0 miENE (70°)8.1 mphScattered Clouds
4:39 PM80.6 °F73.4 °F79 %29.81 in10.0 miEast (80°)6.9 mphMostly Cloudy
4:42 PM82.4 °F73.4 °F74 %29.81 in10.0 miEast (90°)6.9 mphScattered Clouds
4:55 PM81.5 °F73.2 °F76 %29.82 in10.0 miENE (70°)9.2 mphScattered Clouds
5:18 PM80.6 °F73.4 °F79 %29.82 in10.0 miESE (110°)8.1 mphMostly Cloudy
5:48 PM80.6 °F71.6 °F74 %29.82 in10.0 miEast (90°)9.2 mphScattered Clouds
5:55 PM80.1 °F72.3 °F77 %29.83 in10.0 miEast (100°)9.2 mphPartly Cloudy
6:47 PM80.6 °F73.4 °F79 %29.85 in10.0 miEast (100°)10.4 mphMostly Cloudy
6:49 PM80.6 °F73.4 °F79 %29.85 in10.0 miEast (100°)9.2 mphScattered Clouds
6:55 PM79.7 °F72.9 °F80 %29.85 in10.0 miEast (100°)11.5 mphScattered Clouds
6:59 PM80.6 °F71.6 °F74 %29.85 in10.0 miEast (90°)10.4 mphMostly Cloudy
7:31 PM78.8 °F73.4 °F83 %29.86 in10.0 miEast (90°)10.4 mphMostly Cloudy
7:32 PM78.8 °F73.4 °F83 %29.86 in10.0 miEast (90°)10.4 mphMostly Cloudy
7:41 PM78.8 °F71.6 °F78 %29.86 in10.0 miEast (90°)9.2 mphScattered Clouds
7:55 PM79.0 °F72.5 °F80 %29.87 in10.0 miEast (90°)9.2 mphPartly Cloudy
8:55 PM78.8 °F72.0 °F79 %29.88 in10.0 miEast (90°)9.2 mphPartly Cloudy
9:09 PM78.8 °F73.4 °F83 %29.88 in10.0 miEast (80°)9.2 mphRainLight Rain
9:14 PM78.8 °F73.4 °F83 %29.88 in10.0 miEast (90°)11.5 mphRainLight Rain
9:21 PM78.8 °F73.4 °F83 %29.88 in10.0 miEast (100°)9.2 mphMostly Cloudy
9:35 PM78.8 °F71.6 °F78 %29.88 in10.0 miEast (80°)10.4 mphScattered Clouds
9:55 PM78.4 °F72.5 °F82 %29.89 in10.0 miEast (90°)11.5 mph0.00 inScattered Clouds
10:55 PM78.3 °F72.0 °F81 %29.90 in10.0 miEast (90°)9.2 mphPartly Cloudy
11:55 PM77.5 °F70.2 °F78 %29.89 in10.0 miEast (80°)10.4 mphScattered Clouds
Hourly data recorded from PGUA, located miles away from Mangilao, Guam







STORIES FROM OUR PARTNERS